Regional Weather Roundup
Issued by NWS

Home | Current Version | Previous Version | Text Only | Print | Product List | Glossary On
Versions: 1 2 3 4 5 6 7 8 9 10 11 12 13 14 15 16 17 18 19 20 21 22 23 24 25 26 27
000
ASUS42 KTBW 270317
RWRFL
FLORIDA REGIONAL WEATHER ROUNDUP
NATIONAL WEATHER SERVICE TAMPA BAY RUSKIN FL
1100 PM EDT WED APR 26 2017

NOTE: "FAIR" INDICATES FEW OR NO CLOUDS BELOW 12,000 FEET WITH NO
SIGNIFICANT WEATHER AND/OR OBSTRUCTIONS TO VISIBILITY.

FLZ001>010-012>015-112-114-115-270400-
PANHANDLE FLORIDA

CITY           SKY/WX    TMP DP  RH WIND       PRES   REMARKS
PENSACOLA      CLOUDY    75  69  81 SE16      29.78R
PENSACOLA NAS  CLOUDY    74  69  85 SE12      29.78R
MILTON NAS     CLOUDY    72  67  84 SE13      29.79
CRESTVIEW      CLOUDY    73  65  75 VRB5      29.81R
DUKE FIELD     MOCLDY    73  66  79 SE13      29.79R
VALPARAISO     MOCLDY    74  68  82 SE15      29.80R
MARY ESTHER    CLOUDY    73  67  79 SE15      29.78
PANAMA CITY    CLOUDY    73  65  75 E7        29.81R
TYNDALL AFB    CLOUDY    73  67  82 SE13      29.83R
APALACHICOLA   CLOUDY    75  71  87 S14       29.84R

STATION/POSITION SKY/WX   TEMP    WIND        PRES    WAVE   SWELL
                          AIR SEA DIR/SP/G            HT/PER HT/PER
                          (F)     (DEG/KT/KT) (MB)    (FT/S) (FT/S)
30.1N   87.6W              74 74  140/ 17/ 19 1007.5R   4/ 5
29.2N   88.2W              75 75  150/ 12/ 14 1007.6
28.8N   86.0W              74 74  150/ 17/ 19 1008.9R   4/ 4
PANAMA CITY BEAC           73 75  140/ 18/ 21 1009.9R
TOWER C                    73     160/ 17/ 18 1010.9R
28.5N   84.5W              73 73  160/ 14/ 16 1010.6R   3/ 5

$$
FLZ011-016>038-118-127-128-134-139-239-270400-
NORTH FLORIDA

CITY           SKY/WX    TMP DP  RH WIND       PRES   REMARKS
MARIANNA       PTCLDY    72  61  68 S7        29.83R
TALLAHASSEE    CLOUDY    68  62  81 CALM      29.86R
PERRY          PTCLDY    67  63  84 SE3       29.89R
CROSS CITY     MOCLDY    66  61  82 CALM      29.89R
LAKE CITY      FAIR      63  55  77 CALM      29.90R
GAINESVILLE    PTCLDY    64  54  69 CALM      29.90R
WILLISTON      CLEAR     66  59  77 CALM      29.90R
PALATKA        FAIR      64  55  72 CALM      29.91R
MAYPORT NAS    MOCLDY    71  63  75 S13       29.90R
JACKSONVILLE   CLEAR     67  61  81 SE8       29.89R
JAX NAS        PTCLDY    73  62  68 SE12      29.90R
FERNANDINA BEA FAIR      75  64  69 S10       29.88S
ST AUGUSTINE   CLEAR     72  62  71 S10       29.92R

STATION/POSITION SKY/WX   TEMP    WIND        PRES    WAVE   SWELL
                          AIR SEA DIR/SP/G            HT/PER HT/PER
                          (F)     (DEG/KT/KT) (MB)    (FT/S) (FT/S)
SHELL POINT      NOT AVBL
KEATON BEACH               73     130/  5/  6 1011.3R
CEDAR KEY                  75     160/  8/  9 1012.3R
FERNANDINA                 73 74  150/  7/ 12 1012.9R
30.7N   81.3W                 73                N/A     3/10   2/11
MAYPORT                    73 75  180/  8/ 12 1012.7R
31.4N   80.9W              73 72  180/ 16/ 19 1011.6R   3/ 9   2/ 9
ST AUGUSTINE               73 75  180/ 13/ 16 1013.6R

$$
FLZ040-043>046-052-053-057-058-063-144-270400-
INTERIOR CENTRAL FLORIDA

CITY           SKY/WX    TMP DP  RH WIND       PRES   REMARKS
OCALA          PTCLDY    66  54  63 CALM      29.90F
THE VILLAGES     N/A     68  59  73 CALM      29.81R
LEESBURG       CLEAR     70  59  68 SE3       29.91R
SANFORD        CLEAR     70  61  73 SE5       29.92R
ORLANDO EXEC   PTCLDY    72  62  71 E3        29.92R
ORLANDO INTL   PTCLDY    71  63  75 SE6       29.92R
KISSIMMEE      CLOUDY    75  64  68 SE9       29.92R
WINTER HAVEN   PTCLDY    75  59  57 CALM      29.92R
LAKELAND       CLEAR     68  61  77 CALM      29.92R
BARTOW         FAIR      68  61  77 CALM      29.92R
OKEECHOBEE     CLEAR     73  68  83 S8        29.93R

$$
FLZ041-047-054-059-064-141-147-270400-
EAST CENTRAL FLORIDA

CITY           SKY/WX    TMP DP  RH WIND       PRES   REMARKS
DAYTONA BEACH  CLEAR     71  63  75 S7        29.92R
DELAND         CLEAR     70  61  73 SE6       29.92R
JFK SPACE CTR  CLEAR     73  67  81 S6        29.91R
CAPE CANAVERAL PTCLDY    75  67  77 S10       29.92R
PATRICK AFB    PTCLDY    77  68  74 S12       29.92R
MELBOURNE      CLEAR     76  66  71 S7        29.93R
VERO BEACH     CLEAR     75  68  78 S10       29.93R
FT PIERCE      MOCLDY    76  68  76 S5        29.93R

STATION/POSITION SKY/WX   TEMP    WIND        PRES    WAVE   SWELL
                          AIR SEA DIR/SP/G            HT/PER HT/PER
                          (F)     (DEG/KT/KT) (MB)    (FT/S) (FT/S)
28.5N   80.2W              77 76  150/ 12/ 14 1014.4
28.9N   78.5W              76 78  150/ 10/ 14 1014.4R   4/ 9   3/ 9
TRIDENT PIER               75 77  140/  9/ 12 1014.7R
28.4N   80.5W                 76                N/A     3/ 4
27.5N   80.2W                 77                N/A     3/13   2/13

$$
FLZ050-056-061-142-242-148-248-149-249-151-251-155-255-
160-260-270400-
WEST CENTRAL FLORIDA

CITY           SKY/WX    TMP DP  RH WIND       PRES   REMARKS
CRYSTAL RIVER  FAIR      64  59  82 CALM      29.90R
INVERNESS      FAIR      64  61  88 CALM      29.91S
BROOKSVILLE    CLEAR     68  62  81 CALM      29.91R
CLEARWATER AIR FAIR      73  70  88 CALM      29.89S
ST PETE CLEARW CLEAR     75  69  81 S7        29.89S
TAMPA INTL     CLEAR     76  70  82 S7        29.90R
TAMPA EXEC     CLEAR     68  63  83 CALM      29.91R
PLANT CITY     CLEAR     70  64  83 CALM      29.93R
MACDILL AFB    CLEAR     75  73  93 S6        29.89S
PETER O KNIGHT CLOUDY    79  73  83 S5        29.90S
ST PETERSBURG  CLEAR     76  71  85 SW7       29.88R
SARASOTA       CLEAR     74  69  85 SE6       29.89R
VENICE         FAIR      75  72  88 S5        29.91R

STATION/POSITION SKY/WX   TEMP    WIND        PRES    WAVE   SWELL
                          AIR SEA DIR/SP/G            HT/PER HT/PER
                          (F)     (DEG/KT/KT) (MB)    (FT/S) (FT/S)
27.3N   84.2W                 74                N/A     3/ 5
CLEARWATER BEACH           76 78  170/  7/  8 1012.2R
MIDDLE TAMPA BAY           76     190/  5/  7 1012.6R
VENICE                     77 78  160/  6/  7 1012.3R

$$
FLZ066-069-070-075>078-162-262-165-265-270400-
SOUTHWEST FLORIDA AND KEYS

CITY           SKY/WX    TMP DP  RH WIND       PRES   REMARKS
PUNTA GORDA    CLEAR     71  68  90 SE5       29.93R
FT MYERS       CLEAR     75  71  87 CALM      29.91R
SOUTHWEST INTL CLEAR     75  70  84 CALM      29.91R
NAPLES         CLEAR     77  72  84 CALM      29.91R
IMMOKALEE      FAIR      72  68  88 CALM      29.92R
MARATHON       CLEAR     80  76  87 SE8       29.92R
KEY WEST NAS   PTCLDY   N/A N/A N/A E9        29.92R
KEY WEST INTL  PTCLDY    79  75  87 E10       29.92R

STATION/POSITION SKY/WX   TEMP    WIND        PRES    WAVE   SWELL
                          AIR SEA DIR/SP/G            HT/PER HT/PER
                          (F)     (DEG/KT/KT) (MB)    (FT/S) (FT/S)
NAPLES                        78  120/  2/  3 1012.8R
26.0N   85.6W              79     160/ 16/ 17 1009.6R   4/ 5
DRY TORTUGAS               78     130/ 14/ 17 1012.4R
SAND KEY                   78     120/ 12/ 13 1013.5R
LONG KEY                   79 80  130/ 12/ 13 1013.4R
MOLASSES REEF              78 78  100/  9/ 12 1013.7R

$$
FLZ067-068-071>074-168-172>174-270400-
SOUTHEAST FLORIDA

CITY           SKY/WX    TMP DP  RH WIND       PRES   REMARKS
W PALM BEACH   MOCLDY    78  69  73 SE12      29.94R
FT LAUDER-EXEC CLEAR     80  69  69 SE9       29.93R
FT LAUDERDALE  PTCLDY    78  71  79 SE12      29.92R
POMPANO BEACH  PTCLDY    78  72  81 SE13      29.93R
PEMBROKE PINES CLEAR     77  70  79 SE7       29.94R
OPA LOCKA      CLEAR     76  70  82 SE7       29.93R
MIAMI          PTCLDY    79  71  76 SE8       29.93R
WEST KENDALL   PTCLDY    77  72  84 SE7       29.93R
HOMESTEAD      PTCLDY    76  76  98 E7        29.92R

STATION/POSITION SKY/WX   TEMP    WIND        PRES    WAVE   SWELL
                          AIR SEA DIR/SP/G            HT/PER HT/PER
                          (F)     (DEG/KT/KT) (MB)    (FT/S) (FT/S)
PORT EVERGLADES            78     130/  7/ 10 1013.5R
VIRGINIA KEY               78 79   90/  9/ 11 1012.7R
LAKE WORTH                 78 79  150/ 13/ 15 1014.5R
FOWEY ROCKS                78 77  110/ 16/ 17 1013.9R
SETTLEMENT POINT           76     140/  9/ 11 1014.4R

$$





USA.gov is the U.S. government's official web portal to all federal, state and local government web resources and services.